Regional Weather Roundup
Issued by NWS Green Bay, WI

Home | Current Version | Previous Version | Text Only | Print | Product List | Glossary On
Versions: 1 2 3 4 5 6 7 8 9 10 11 12 13 14 15 16 17 18 19 20 21 22 23 24 25 26 27 28 29 30 31 32 33 34 35 36 37 38 39 40 41 42 43 44 45 46 47 48 49 50
127
ASUS43 KGRB 271900
RWRGRB

NORTH-CENTRAL AND NORTHEAST WISCONSIN REGIONAL WEATHER ROUNDUP
NATIONAL WEATHER SERVICE GREEN BAY WI
200 PM CDT SAT AUG 27 2016

WIZ005-009-010>012-018-019-272000-
NORTH CENTRAL WISCONSIN

CITY           SKY/WX    TMP DP  RH WIND       PRES   REMARKS
IRONWOOD       CLOUDY    69  53  56 SE5       30.07R
MANITOWISH WTR NOT AVBL
ARBOR VITAE    NOT AVBL
EAGLE RIVER    NOT AVBL
LAND O LAKES   NOT AVBL
RHINELANDER    CLOUDY    67  58  72 CALM      30.08F
PHILLIPS       CLOUDY    68  59  71 S7        30.05S
ANTIGO         NOT AVBL
TOMAHAWK       NOT AVBL
MERRILL        CLOUDY    68  59  73 SE8       30.07S
$$

WIZ013-073-272000-
NORTHEAST WISCONSIN

CITY           SKY/WX    TMP DP  RH WIND       PRES   REMARKS
IRON MOUNTAIN  LGT RAIN  63  59  87 SE8       30.08S FOG
MARINETTE      CLOUDY   N/A N/A N/A E7        30.08F
$$

WIZ017-030-035>037-045-272000-
CENTRAL WISCONSIN

CITY           SKY/WX    TMP DP  RH WIND       PRES   REMARKS
MEDFORD        NOT AVBL
WAUSAU         CLOUDY    64  59  83 E8        30.05F
MOSINEE        CLOUDY    63  61  94 E7        30.07F
MARSHFIELD     CLOUDY    66  57  72 E8        30.05S
WISC RAPIDS    CLOUDY    67  62  84 E6        30.05F
STEVENS POINT  NOT AVBL
WAUPACA        NOT AVBL
SHAWANO        NOT AVBL
CLINTONVILLE   CLOUDY    64  61  88 E6        30.06F
WAUTOMA        CLOUDY    65  62  90 E5        30.05F
$$

WIZ038-039-048-051-272000-
FOX VALLEY

CITY           SKY/WX    TMP DP  RH WIND       PRES   REMARKS
NWS GREEN BAY  LGT RAIN  65  64  97 E6        30.06S
APPLETON       CLOUDY    64  63  94 E7        30.05S
OSHKOSH        CLOUDY    65  62  90 E6        30.04F
FOND DU LAC    CLOUDY    68  63  84 E5        30.04F
$$

WIZ022-050-052-272000-
EAST CENTRAL WISCONSIN

CITY           SKY/WX    TMP DP  RH WIND       PRES   REMARKS
EPHRAIM        NOT AVBL
WASHINGTON ISL NOT AVBL
STURGEON BAY   LGT RAIN  64  61  90 E7        30.08S
MANITOWOC      NOT AVBL
SHEBOYGAN      CLOUDY    66  64  93 NE3       30.04F
$$

LMZ563-521-522-541>543-272000-
LAKESHORE

STATION/POSITION TIME  TEMP    WIND        PRES    VSBY  WAVE
                       AIR SEA DIR/SP/G                  HT/PER
                 (UTC) (F)     (DEG/KT/KT) (MB)    (MI)  (FT/S)
SHEBOYGAN LKSHOR 1800   60     350/  9/  9 1017.4F
KEWAUNEE LKSHORE 1800   62      60/  1/  3 1017.7F
NORTHPORT PIER   1800   66     100/  6/  7 1018.6F
N MID LAKE BUOY  1750   66 69  150/ 12/ 14 1018.3F         1/ 3
CHAMBERS ISLAND  1840   65      80/  3/  4 1018.6F
MENOMINEE LKSHOR 1800   65      70/  4/  4 1017.8F
$$




USA.gov is the U.S. government's official web portal to all federal, state and local government web resources and services.